Location: Unspecified
(47.1121°N, 116.3927°W)
Time: 13:22:57
(UTC-07:00)

Tiangong 2 - Visible Passes

Search period start: 19 May 2019 00:00
Search period end: 29 May 2019 00:00
Orbit: 378 x 387 km, 42.8° (Epoch: 19 May)

Date Brightness Start Highest point End Pass type
(mag) Time Alt. Az. Time Alt. Az. Time Alt. Az.
19 May 3.2 21:03:26 10° S 21:04:31 11° SSE 21:05:34 10° SE visible
19 May 3.7 22:37:49 10° SW 22:37:56 11° SW 22:37:56 11° SW visible
20 May 2.3 21:38:12 10° SW 21:40:45 23° SSE 21:41:37 20° SE visible
21 May 1.7 22:14:16 10° WSW 22:17:06 34° S 22:17:06 34° S visible
22 May 2.0 21:14:29 10° SW 21:17:14 29° SSE 21:20:01 10° ESE visible
22 May 2.7 22:50:41 10° WSW 22:52:17 24° SW 22:52:17 24° SW visible
23 May 1.7 21:50:45 10° WSW 21:53:40 36° S 21:55:04 23° SE visible
24 May 2.0 22:27:16 10° WSW 22:29:55 31° SSW 22:29:55 31° SSW visible
25 May 1.8 21:27:15 10° WSW 21:30:10 35° S 21:32:30 14° ESE visible
25 May 3.6 23:04:08 10° WSW 23:04:41 13° WSW 23:04:41 13° WSW visible
26 May 2.3 22:03:53 10° WSW 22:06:31 25° SSW 22:07:13 23° S visible
27 May 2.1 21:03:47 10° WSW 21:06:36 31° S 21:09:26 10° SE visible
27 May 3.5 22:41:11 10° WSW 22:41:54 12° SW 22:41:54 12° SW visible
28 May 2.9 21:40:36 10° WSW 21:42:54 19° SSW 21:44:25 14° SSE visible
